Regional Weather Roundup
Issued by NWS Sterling, VA

Home | Current Version | Previous Version | Graphics & Text | Print | Product List | Glossary On
Versions: 1 2 3 4 5 6 7 8 9 10 11 12 13 14 15 16 17 18 19 20 21 22 23 24 25 26 27 28 29 30 31 32 33 34 35 36 37 38 39 40 41 42 43 44 45 46 47 48 49 50
000
ASUS41 KLWX 130510
RWRLWX

REGIONAL WEATHER ROUNDUP
NATIONAL WEATHER SERVICE BALTIMORE MD/WASHINGTON DC
1200 AM EST SAT FEB 13 2016

Note: "FAIR" indicates few or no clouds below 12,000 feet
with no significant weather and/or obstructions to visibility.
 TC=TEMPERATURE CELSIUS

 * =Non NWS site. Station does not report precipitation (e.g. rain,
    snow, etc.), thunder, or fog.

DCZ001-MDZ009-015-VAZ040>042-051-053>054-130600-
WASHINGTON METRO

CITY           SKY/WX    TMP DP  RH WIND       PRES   REMARKS
WASHINGTON NAT CLOUDY    28  17  63 W6        30.02S
DULLES         FAIR      24  18  77 W6        30.00S
ANDREWS AFB    CLOUDY    27  17  66 VRB6      29.99S
FT BELVOIR     MOCLDY    27  18  68 CALM      30.01F
QUANTICO       FAIR      29  14  53 VRB5      30.03F
COLLEGE PARK*  CLOUDY    27  19  74 CALM      30.01S
LEESBURG*      FAIR      28  21  74 NW9G21    30.00F WCI  20
MANASSAS*      FAIR      25  21  86 CALM      30.01F
GAITHERSBURG*  MOCLDY    21  16  79 W3        30.01S

$$

MDZ006>007-011-014-130600-
BALTIMORE METRO

CITY           SKY/WX    TMP DP  RH WIND       PRES   REMARKS
BWI AIRPORT    CLOUDY    23  17  78 W3        29.99F
MD SCIENCE CTR   N/A     25  17  72 MISG      29.99F
MARTIN STATE   CLOUDY    27  23  86 SW3       30.01F
ANNAPOLIS      CLOUDY    27  17  66 W5        30.00F
FORT MEADE*    CLOUDY    25  18  74 CALM      30.02F

$$

MDZ012-015-019>023-130600-
MARYLAND EASTERN SHORE

CITY           SKY/WX    TMP DP  RH WIND       PRES   REMARKS
OCEAN CITY     CLOUDY    23  19  85 W3        30.00S
SALISBURY      CLOUDY    23  19  85 CALM      29.99F
BAY BRIDGE AP*   N/A     28  18  64 W9        30.01F WCI  20
CAMBRIDGE*     MOCLDY    25  19  80 CALM      30.00R
EASTON*        PTCLDY    28  19  68 NW10      30.03S WCI  19

$$

MDZ017>025-130600-
SOUTHERN MARYLAND

CITY           SKY/WX    TMP DP  RH WIND       PRES   REMARKS
PATUXENT RIVER CLOUDY    27  19  72 W6        30.01S
ST INIGOES     CLOUDY    28  20  71 W7        30.01R
LEONARDTOWN*   CLOUDY    27  18  69 CALM      30.02S

$$

MDZ003>005-130600-
NORTH CENTRAL MARYLAND

CITY           SKY/WX    TMP DP  RH WIND       PRES   REMARKS
FREDERICK*     MOCLDY    23  19  86 CALM      30.02S
HAGERSTOWN APT MOCLDY    23  11  60 W14G22    29.95S WCI  11
WESTMINSTER*   CLEAR     19  18  93 W8        29.93F WCI   9

$$

MDZ501>502-130600-
WESTERN MARYLAND

CITY           SKY/WX    TMP DP  RH WIND       PRES   REMARKS
OAKLAND*       FOG       10   9  92 NW15G28   29.83R VSB 3/4 WCI  -6
CUMBERLAND*    PTCLDY    25  14  63 W12       30.01S WCI  14

$$

VAZ025>031-130600-
SHENANDOAH VALLEY

CITY           SKY/WX    TMP DP  RH WIND       PRES   REMARKS
WINCHESTER*    FAIR      27  14  59 NW15      29.97S WCI  15
FRONT ROYAL*   CLOUDY    27  14  59 W16G23    29.97S WCI  14
LURAY*         MOCLDY    25  19  80 W6        29.97S
NEW MARKET*    CLOUDY    26  17  69 CALM      29.97S
STAUNTON*      MOCLDY    30  15  55 NW7       29.98S
WAYNESBORO*    CLOUDY    26  10  52 NW7       29.95R

$$

WVZ021-048>050-054>055-130600-
EASTERN WEST VIRGINIA PANHANDLE

CITY           SKY/WX    TMP DP  RH WIND       PRES   REMARKS
MARTINSBURG    FAIR      24  10  55 W12G23    29.97F WCI  13
PETERSBURG*    MOCLDY    25   9  49 W22       29.98F WCI  11

$$

VAZ036>039-050-130600-
CENTRAL FOOTHILLS

CITY           SKY/WX    TMP DP  RH WIND       PRES   REMARKS
CHARLOTTESVILL CLOUDY    32  11  41 NW12G20   29.98R WCI  23
CULPEPER*      LGT SNOW  26  20  79 CALM      30.02R
ORANGE*        MOCLDY    28  21  74 CALM      30.01R
GORDONSVILLE*  CLOUDY    26  20  79 CALM      29.99R
WARRENTON*     CLOUDY    25  22  88 NW3       30.00R

$$

VAZ055>057-130600-
NORTH AND CENTRAL PIEDMONT

CITY           SKY/WX    TMP DP  RH WIND       PRES   REMARKS
FREDERICKSBRG* CLOUDY    26  20  77 CALM      30.01S
STAFFORD*      CLOUDY    24  16  70 CALM      30.05S

$$

NCZ024-NYZ072-PAZ021-071-VAZ022-071-130600-
OTHER REGIONAL OBSERVATIONS

CITY           SKY/WX    TMP DP  RH WIND       PRES   REMARKS
NEW YORK CITY  CLOUDY    23   7  50 CALM      29.94F
PHILADELPHIA   CLOUDY    24  15  68 W10       29.98F WCI  14
PITTSBURGH     PTCLDY    16   9  74 W20       30.01R WCI  -1
ROANOKE        FAIR      31  10  41 NW18G35   30.01R WCI  19
RICHMOND       MOCLDY    27  20  75 NW3       30.01S
RALEIGH        MOCLDY    31  23  72 W5        30.03S

$$

ANZ530>537-130600-
MARINE OBSERVATIONS

STATION/POSITION TIME  TEMP    WIND        PRES
                       AIR SEA DIR/SP/G
                 (UTC) (F)     (DEG/KT/KT) (MB)
THOMAS PT LIGHT  0500   27 36  290/ 10/ 11 1016.9F
BALT KEY BRIDGE  0400   25     270/  9/ 11 1016.3F
COVE POINT       0400   27     290/  5/  7 1016.7S
LEWISETTA        0400   26 36  260/  4/  5 1015.8F
SOLOMONS ISLAND  0400   29 39  250/  7/  7   N/A
PINEY POINT      0400          290/  5/  6   N/A

$$




USA.gov is the U.S. government's official web portal to all federal, state and local government web resources and services.